When you browse on this site, cookies collect data to enhance your experience and personalize the content and advertising you see.
Visit our Privacy Policy to learn more. By continuing to use the site, you agree to this use of cookies and data.
  • In Hungary
  • List of Countries
  • For 7 days
  • Water Temperature
  • Satellite Maps
  • Weather Map
  • News
  • Weather Widgets
  • user-avatar
    Login

    Hourly Weather Konrady

    Today, 15 December, Saturday

    Time Temperature Precipitation Wind Pressure Humidity
    00:00 -2°C° 0 mm 2 mps 759 mmHg 90%
    01:00 -2°C° 0 mm 2 mps 759 mmHg 91%
    02:00 -2°C° 0 mm 2 mps 759 mmHg 91%
    03:00 -2°C° 0 mm 2 mps 759 mmHg 91%
    04:00 -2°C° 0 mm 2 mps 759 mmHg 91%
    05:00 -2°C° 0 mm 2 mps 759 mmHg 91%
    06:00 -2°C° 0 mm 2 mps 760 mmHg 91%
    07:00 -2°C° 0 mm 2 mps 760 mmHg 91%
    08:00 -2°C° 0 mm 3 mps 760 mmHg 89%
    09:00 -1°C° 0 mm 3 mps 760 mmHg 86%
    10:00 -1°C° 0 mm 3 mps 760 mmHg 84%
    11:00 -1°C° 0 mm 3 mps 760 mmHg 83%
    12:00 -1°C° 0 mm 3 mps 760 mmHg 82%
    13:00 -1°C° 0 mm 3 mps 760 mmHg 80%
    14:00 -1°C° 0 mm 3 mps 760 mmHg 82%
    15:00 -1°C° 0 mm 3 mps 760 mmHg 83%
    16:00 -1°C° 0 mm 3 mps 760 mmHg 85%
    17:00 -2°C° 0 mm 3 mps 760 mmHg 85%
    18:00 -2°C° 0 mm 3 mps 759 mmHg 85%
    19:00 -2°C° 0 mm 3 mps 759 mmHg 85%
    20:00 -2°C° 0 mm 3 mps 759 mmHg 84%
    21:00 -2°C° 0 mm 3 mps 759 mmHg 83%
    22:00 -2°C° 0 mm 3 mps 759 mmHg 82%
    23:00 -3°C° 0 mm 4 mps 758 mmHg 82%

    Tomorrow, 16 December, Sunday

    Time Temperature Precipitation Wind Pressure Humidity
    00:00 -3°C° 0 mm 4 mps 758 mmHg 81%
    01:00 -3°C° 0 mm 4 mps 758 mmHg 81%
    02:00 -3°C° 0.1 mm 4 mps 757 mmHg 81%
    03:00 -3°C° 0.1 mm 4 mps 757 mmHg 81%
    04:00 -4°C° 0.1 mm 5 mps 756 mmHg 82%
    05:00 -4°C° 0.2 mm 5 mps 756 mmHg 82%
    06:00 -4°C° 0.2 mm 5 mps 756 mmHg 83%
    07:00 -4°C° 0.2 mm 5 mps 755 mmHg 84%
    08:00 -4°C° 0.3 mm 5 mps 755 mmHg 84%
    09:00 -4°C° 0.3 mm 6 mps 755 mmHg 84%
    10:00 -4°C° 0.3 mm 6 mps 755 mmHg 85%
    11:00 -4°C° 0.5 mm 6 mps 754 mmHg 86%
    12:00 -4°C° 0.5 mm 5 mps 754 mmHg 87%
    13:00 -4°C° 0.5 mm 5 mps 753 mmHg 89%
    14:00 -4°C° 0.4 mm 5 mps 753 mmHg 89%
    15:00 -4°C° 0.4 mm 5 mps 753 mmHg 89%
    16:00 -5°C° 0.4 mm 5 mps 752 mmHg 90%
    17:00 -5°C° 0.3 mm 5 mps 752 mmHg 90%
    18:00 -4°C° 0.3 mm 5 mps 752 mmHg 90%
    19:00 -4°C° 0.3 mm 5 mps 752 mmHg 90%
    20:00 -3°C° 0.1 mm 4 mps 752 mmHg 90%
    21:00 -3°C° 0.1 mm 4 mps 753 mmHg 90%
    22:00 -3°C° 0.1 mm 4 mps 753 mmHg 91%
    23:00 -3°C° 0 mm 4 mps 753 mmHg 91%

    Day after tomorrow, 17 December, Monday

    Time Temperature Precipitation Wind Pressure Humidity
    00:00 -2°C° 0 mm 3 mps 753 mmHg 92%
    01:00 -2°C° 0 mm 3 mps 753 mmHg 93%
    02:00 -2°C° 0 mm 3 mps 752 mmHg 93%
    03:00 -2°C° 0 mm 3 mps 752 mmHg 93%
    04:00 -2°C° 0 mm 3 mps 752 mmHg 94%
    05:00 -2°C° 0 mm 2 mps 752 mmHg 94%
    06:00 -3°C° 0 mm 2 mps 752 mmHg 94%
    07:00 -3°C° 0 mm 2 mps 752 mmHg 94%
    08:00 -3°C° 0 mm 2 mps 753 mmHg 93%
    09:00 -3°C° 0 mm 2 mps 753 mmHg 92%
    10:00 -2°C° 0 mm 2 mps 753 mmHg 90%
    11:00 -2°C° 0 mm 2 mps 753 mmHg 89%
    12:00 -2°C° 0 mm 2 mps 753 mmHg 88%
    13:00 -1°C° 0 mm 2 mps 753 mmHg 87%
    14:00 -2°C° 0 mm 2 mps 753 mmHg 89%
    15:00 -3°C° 0 mm 2 mps 753 mmHg 91%
    16:00 -3°C° 0 mm 2 mps 754 mmHg 93%
    17:00 -3°C° 0 mm 2 mps 754 mmHg 93%
    18:00 -4°C° 0 mm 2 mps 754 mmHg 94%
    19:00 -4°C° 0 mm 2 mps 755 mmHg 94%
    20:00 -4°C° 0 mm 2 mps 755 mmHg 94%
    21:00 -4°C° 0 mm 2 mps 756 mmHg 94%
    22:00 -3°C° 0 mm 2 mps 756 mmHg 94%
    23:00 -3°C° 0 mm 2 mps 756 mmHg 94%

    18 December, Tuesday

    Time Temperature Precipitation Wind Pressure Humidity
    00:00 -3°C° 0 mm 2 mps 757 mmHg 94%
    01:00 -2°C° 0 mm 2 mps 757 mmHg 94%
    02:00 -2°C° 0 mm 2 mps 757 mmHg 94%
    03:00 -1°C° 0 mm 1 mps 757 mmHg 95%
    04:00 -1°C° 0 mm 1 mps 757 mmHg 95%
    05:00 -1°C° 0 mm 1 mps 758 mmHg 95%
    06:00 -1°C° 0 mm 1 mps 758 mmHg 95%
    07:00 -1°C° 0 mm 1 mps 758 mmHg 95%
    08:00 -1°C° 0 mm 1 mps 759 mmHg 95%
    09:00 0°C° 0 mm 1 mps 759 mmHg 94%
    10:00 0°C° 0 mm 1 mps 760 mmHg 94%
    11:00 +1°C° 0 mm 1 mps 760 mmHg 94%
    12:00 +1°C° 0 mm 1 mps 760 mmHg 94%
    13:00 +1°C° 0 mm 1 mps 760 mmHg 95%
    14:00 +1°C° 0 mm 1 mps 760 mmHg 95%
    15:00 +1°C° 0 mm 1 mps 760 mmHg 96%
    16:00 0°C° 0 mm 1 mps 760 mmHg 96%
    17:00 0°C° 0 mm 1 mps 760 mmHg 96%
    18:00 0°C° 0 mm 1 mps 760 mmHg 96%
    19:00 0°C° 0 mm 1 mps 761 mmHg 96%
    20:00 0°C° 0 mm 1 mps 761 mmHg 96%
    21:00 0°C° 0 mm 1 mps 761 mmHg 96%
    22:00 0°C° 0 mm 1 mps 761 mmHg 96%
    23:00 0°C° 0 mm 1 mps 761 mmHg 96%

    19 December, Wednesday

    Time Temperature Precipitation Wind Pressure Humidity
    00:00 -2°C° 0 mm 2 mps 761 mmHg 96%
    01:00 -2°C° 0 mm 2 mps 761 mmHg 96%
    02:00 -2°C° 0 mm 2 mps 761 mmHg 96%
    03:00 -2°C° 0 mm 2 mps 761 mmHg 96%
    04:00 0°C° 0 mm 1 mps 761 mmHg 96%
    05:00 -2°C° 0 mm 2 mps 761 mmHg 95%
    06:00 -2°C° 0 mm 2 mps 761 mmHg 95%
    07:00 -2°C° 0 mm 2 mps 761 mmHg 94%
    08:00 -2°C° 0 mm 2 mps 761 mmHg 92%
    09:00 -2°C° 0 mm 3 mps 761 mmHg 89%
    10:00 -2°C° 0 mm 3 mps 761 mmHg 87%
    11:00 -2°C° 0 mm 3 mps 761 mmHg 86%
    12:00 -2°C° 0 mm 3 mps 761 mmHg 85%
    13:00 -2°C° 0 mm 3 mps 761 mmHg 84%
    14:00 -4°C° 0 mm 3 mps 761 mmHg 85%
    15:00 -4°C° 0 mm 3 mps 761 mmHg 87%
    16:00 -5°C° 0 mm 3 mps 761 mmHg 88%
    17:00 -5°C° 0 mm 4 mps 761 mmHg 87%
    18:00 -5°C° 0 mm 4 mps 761 mmHg 86%
    19:00 -5°C° 0 mm 4 mps 761 mmHg 86%
    20:00 -5°C° 0 mm 4 mps 761 mmHg 86%
    21:00 -5°C° 0 mm 4 mps 761 mmHg 86%
    22:00 -5°C° 0 mm 4 mps 761 mmHg 86%
    23:00 -7°C° 0 mm 4 mps 761 mmHg 87%

    20 December, Thursday

    Time Temperature Precipitation Wind Pressure Humidity
    00:00 -7°C° 0 mm 3 mps 761 mmHg 89%
    01:00 -7°C° 0 mm 3 mps 761 mmHg 90%
    02:00 -8°C° 0 mm 3 mps 761 mmHg 90%
    03:00 -8°C° 0 mm 3 mps 761 mmHg 90%
    04:00 -8°C° 0 mm 3 mps 761 mmHg 91%
    05:00 -10°C° 0 mm 4 mps 761 mmHg 90%
    06:00 -10°C° 0 mm 4 mps 761 mmHg 90%
    07:00 -10°C° 0 mm 4 mps 761 mmHg 90%
    08:00 -10°C° 0 mm 4 mps 761 mmHg 89%
    09:00 -10°C° 0 mm 4 mps 761 mmHg 88%
    10:00 -9°C° 0 mm 4 mps 762 mmHg 87%
    11:00 -9°C° 0 mm 4 mps 761 mmHg 86%
    12:00 -9°C° 0 mm 4 mps 761 mmHg 85%
    13:00 -9°C° 0 mm 4 mps 761 mmHg 84%
    14:00 -9°C° 0 mm 4 mps 761 mmHg 86%
    15:00 -9°C° 0 mm 4 mps 761 mmHg 87%
    16:00 -10°C° 0 mm 4 mps 761 mmHg 88%
    17:00 -10°C° 0 mm 4 mps 761 mmHg 89%
    18:00 -11°C° 0 mm 4 mps 762 mmHg 89%
    19:00 -11°C° 0 mm 4 mps 762 mmHg 89%
    20:00 -11°C° 0 mm 4 mps 762 mmHg 90%
    21:00 -11°C° 0 mm 4 mps 762 mmHg 90%
    22:00 -11°C° 0 mm 4 mps 762 mmHg 90%
    23:00 -11°C° 0 mm 4 mps 762 mmHg 90%
    Show more